Powrót do katalogu

DGS 2-01

AktywnyNaukaSSO
NORAD 65260·PAYLOAD·🇨🇳 China
Ta nazwa satelity nie została jeszcze potwierdzona przez oficjalne źródła.

Wystrzelony Aug 19, 2025 z Jiuquan Satellite Launch Center

Loading…

Następne Przeloty (najbliższe 24 godziny)

TLE

ŚwieżeSource: Space-Track

Epoka: Sep 14, 2026, 14:01 UTC

1 65260U 25180B   26257.58452609  .00002918  00000-0  15499-3 0  9997
2 65260  97.5389  24.0740 0014663  20.2482 339.9329 15.16023214 59206

Śledź DGS 2-01 w czasie rzeczywistym z AllMySat

Download on the App Store